Location: *
(44.1392°N, 4.8079°E)
Time: 11:27:18
(UTC+00:00)

Lacrosse 5 rocket - Pass Details

Date: 26 October 2021
Orbit: 459 x 633 km, 57.0° (Epoch: 29 November)

Event Time Altitude Azimuth Distance (km) Brightness Sun altitude
Exits shadow 03:03:41 13° 28° (NNE) 1,720 4.2 -33.7°
Drops below altitude 10° 03:04:21 10° 33° (NNE) 1,929 4.6 -33.6°
Sets 03:06:59 0° 46° (NE) 2,862 5.8 -33.2°
